#Datum;Uhrzeit;WR;Pac;DaySum;Status;WR;Pac;DaySum;Status;Pdc1;Udc;Temp;WR;Pac;DaySum;Status;Pdc1;Udc;Temp;WR;Pac;DaySum;Status;Pdc1;Udc;Temp;WR;Pac;DaySum;Status;Pdc1;Pdc2;Udc1;Udc2;Temp;WR;Pac;DaySum;Status;Pdc1;Pdc2;Udc1;Udc2;Temp;WR;Pac;DaySum;Status;Pdc1;Udc;Temp;WR;Pac;DaySum;Status;Pdc1;Udc;Temp;WR;Pac;DaySum;Status;Pdc1;Udc;Temp
26.03.21;23:55:00;1;414;14543;0;2;0;31435;0;0;0;0;3;0;20040;0;0;0;0;4;0;30238;0;0;0;0;5;0;0;0;0;0;0;0;0;6;0;52550;0;0;0;0;0;0;7;0;43559;0;0;0;0;8;0;43015;0;0;0;0;9;0;23499;0;0;0;0
26.03.21;23:50:00;1;367;14509;0;2;0;31435;0;0;0;0;3;0;20040;0;0;0;0;4;0;30238;0;0;0;0;5;0;0;0;0;0;0;0;0;6;0;52550;0;0;0;0;0;0;7;0;43559;0;0;0;0;8;0;43015;0;0;0;0;9;0;23499;0;0;0;0
26.03.21;23:45:00;1;388;14478;0;2;0;31435;0;0;0;0;3;0;20040;0;0;0;0;4;0;30238;0;0;0;0;5;0;0;0;0;0;0;0;0;6;0;52550;0;0;0;0;0;0;7;0;43559;0;0;0;0;8;0;43015;0;0;0;0;9;0;23499;0;0;0;0
26.03.21;23:40:00;1;422;14446;0;2;0;31435;0;0;0;0;3;0;20040;0;0;0;0;4;0;30238;0;0;0;0;5;0;0;0;0;0;0;0;0;6;0;52550;0;0;0;0;0;0;7;0;43559;0;0;0;0;8;0;43015;0;0;0;0;9;0;23499;0;0;0;0
26.03.21;23:35:00;1;498;14411;0;2;0;31435;0;0;0;0;3;0;20040;0;0;0;0;4;0;30238;0;0;0;0;5;0;0;0;0;0;0;0;0;6;0;52550;0;0;0;0;0;0;7;0;43559;0;0;0;0;8;0;43015;0;0;0;0;9;0;23499;0;0;0;0
26.03.21;23:30:00;1;526;14371;0;2;0;31435;0;0;0;0;3;0;20040;0;0;0;0;4;0;30238;0;0;0;0;5;0;0;0;0;0;0;0;0;6;0;52550;0;0;0;0;0;0;7;0;43559;0;0;0;0;8;0;43015;0;0;0;0;9;0;23499;0;0;0;0
26.03.21;23:25:00;1;502;14327;0;2;0;31435;0;0;0;0;3;0;20040;0;0;0;0;4;0;30238;0;0;0;0;5;0;0;0;0;0;0;0;0;6;0;52550;0;0;0;0;0;0;7;0;43559;0;0;0;0;8;0;43015;0;0;0;0;9;0;23499;0;0;0;0
26.03.21;23:20:00;1;722;14285;0;2;0;31435;0;0;0;0;3;0;20040;0;0;0;0;4;0;30238;0;0;0;0;5;0;0;0;0;0;0;0;0;6;0;52550;0;0;0;0;0;0;7;0;43559;0;0;0;0;8;0;43015;0;0;0;0;9;0;23499;0;0;0;0
26.03.21;23:15:00;1;779;14224;0;2;0;31435;0;0;0;0;3;0;20040;0;0;0;0;4;0;30238;0;0;0;0;5;0;0;0;0;0;0;0;0;6;0;52550;0;0;0;0;0;0;7;0;43559;0;0;0;0;8;0;43015;0;0;0;0;9;0;23499;0;0;0;0
26.03.21;23:10:00;1;1379;14156;0;2;0;31435;0;0;0;0;3;0;20040;0;0;0;0;4;0;30238;0;0;0;0;5;0;0;0;0;0;0;0;0;6;0;52550;0;0;0;0;0;0;7;0;43559;0;0;0;0;8;0;43015;0;0;0;0;9;0;23499;0;0;0;0
26.03.21;23:05:00;1;883;14045;0;2;0;31435;0;0;0;0;3;0;20040;0;0;0;0;4;0;30238;0;0;0;0;5;0;0;0;0;0;0;0;0;6;0;52550;0;0;0;0;0;0;7;0;43559;0;0;0;0;8;0;43015;0;0;0;0;9;0;23499;0;0;0;0
26.03.21;23:00:00;1;796;13971;0;2;0;31435;0;0;0;0;3;0;20040;0;0;0;0;4;0;30238;0;0;0;0;5;0;0;0;0;0;0;0;0;6;0;52550;0;0;0;0;0;0;7;0;43559;0;0;0;0;8;0;43015;0;0;0;0;9;0;23499;0;0;0;0
26.03.21;22:55:00;1;719;13910;0;2;0;31435;0;0;0;0;3;0;20040;0;0;0;0;4;0;30238;0;0;0;0;5;0;0;0;0;0;0;0;0;6;0;52550;2;0;0;0;0;0;7;0;43559;0;0;0;0;8;0;43015;0;0;0;0;9;0;23499;0;0;0;0
26.03.21;22:50:00;1;629;13853;0;2;0;31435;0;0;0;0;3;0;20040;0;0;0;0;4;0;30238;0;0;0;0;5;0;0;0;0;0;0;0;0;6;0;52550;2;0;0;0;0;0;7;0;43559;0;0;0;0;8;0;43015;0;0;0;0;9;0;23499;0;0;0;0
26.03.21;22:45:00;1;630;13799;0;2;0;31435;0;0;0;0;3;0;20040;0;0;0;0;4;0;30238;0;0;0;0;5;0;0;0;0;0;0;0;0;6;0;52550;2;0;0;0;0;0;7;0;43559;0;0;0;0;8;0;43015;0;0;0;0;9;0;23499;0;0;0;0
26.03.21;22:40:00;1;626;13747;0;2;0;31435;0;0;0;0;3;0;20040;0;0;0;0;4;0;30238;0;0;0;0;5;0;0;0;0;0;0;0;0;6;0;52550;2;0;0;0;0;0;7;0;43559;0;0;0;0;8;0;43015;0;0;0;0;9;0;23499;0;0;0;0
26.03.21;22:35:00;1;642;13693;0;2;0;31435;0;0;0;0;3;0;20040;0;0;0;0;4;0;30238;0;0;0;0;5;0;0;0;0;0;0;0;0;6;0;52550;2;0;0;0;0;0;7;0;43559;0;0;0;0;8;0;43015;0;0;0;0;9;0;23499;0;0;0;0
26.03.21;22:30:00;1;665;13639;0;2;0;31435;0;0;0;0;3;0;20040;0;0;0;0;4;0;30238;0;0;0;0;5;0;0;0;0;0;0;0;0;6;0;52550;2;0;0;0;0;0;7;0;43559;0;0;0;0;8;0;43015;0;0;0;0;9;0;23499;0;0;0;0
26.03.21;22:25:00;1;635;13582;0;2;0;31435;0;0;0;0;3;0;20040;0;0;0;0;4;0;30238;0;0;0;0;5;0;0;0;0;0;0;0;0;6;0;52550;2;0;0;0;0;0;7;0;43559;0;0;0;0;8;0;43015;0;0;0;0;9;0;23499;0;0;0;0
26.03.21;22:20:00;1;745;13529;0;2;0;31435;0;0;0;0;3;0;20040;0;0;0;0;4;0;30238;0;0;0;0;5;0;0;0;0;0;0;0;0;6;0;52550;2;0;0;0;0;0;7;0;43559;0;0;0;0;8;0;43015;0;0;0;0;9;0;23499;0;0;0;0
26.03.21;22:15:00;1;742;13467;0;2;0;31435;0;0;0;0;3;0;20040;0;0;0;0;4;0;30238;0;0;0;0;5;0;0;0;0;0;0;0;0;6;0;52550;2;0;0;0;0;0;7;0;43559;0;0;0;0;8;0;43015;0;0;0;0;9;0;23499;0;0;0;0
26.03.21;22:10:00;1;704;13407;0;2;0;31435;0;0;0;0;3;0;20040;0;0;0;0;4;0;30238;0;0;0;0;5;0;0;0;0;0;0;0;0;6;0;52550;2;0;0;0;0;0;7;0;43559;0;0;0;0;8;0;43015;0;0;0;0;9;0;23499;0;0;0;0
26.03.21;22:05:00;1;728;13348;0;2;0;31435;0;0;0;0;3;0;20040;0;0;0;0;4;0;30238;0;0;0;0;5;0;0;0;0;0;0;0;0;6;0;52550;2;0;0;0;0;0;7;0;43559;0;0;0;0;8;0;43015;0;0;0;0;9;0;23499;0;0;0;0
26.03.21;22:00:00;1;693;13287;0;2;0;31435;0;0;0;0;3;0;20040;0;0;0;0;4;0;30238;0;0;0;0;5;0;0;0;0;0;0;0;0;6;0;52550;2;0;0;0;0;0;7;0;43559;0;0;0;0;8;0;43015;0;0;0;0;9;0;23499;0;0;0;0
26.03.21;21:55:00;1;661;13229;0;2;0;31435;0;0;0;0;3;0;20040;0;0;0;0;4;0;30238;0;0;0;0;5;0;0;0;0;0;0;0;0;6;0;52550;2;0;0;0;0;0;7;0;43559;0;0;0;0;8;0;43015;0;0;0;0;9;0;23499;0;0;0;0
26.03.21;21:50:00;1;673;13173;0;2;0;31435;0;0;0;0;3;0;20040;0;0;0;0;4;0;30238;0;0;0;0;5;0;0;0;0;0;0;0;0;6;0;52550;2;0;0;0;0;0;7;0;43559;0;0;0;0;8;0;43015;0;0;0;0;9;0;23499;0;0;0;0
26.03.21;21:45:00;1;667;13116;0;2;0;31435;0;0;0;0;3;0;20040;0;0;0;0;4;0;30238;0;0;0;0;5;0;0;0;0;0;0;0;0;6;0;52550;2;0;0;0;0;0;7;0;43559;0;0;0;0;8;0;43015;0;0;0;0;9;0;23499;0;0;0;0
26.03.21;21:40:00;1;675;13060;0;2;0;31435;0;0;0;0;3;0;20040;0;0;0;0;4;0;30238;0;0;0;0;5;0;0;0;0;0;0;0;0;6;0;52550;2;0;0;0;0;0;7;0;43559;0;0;0;0;8;0;43015;0;0;0;0;9;0;23499;0;0;0;0
26.03.21;21:35:00;1;726;13003;0;2;0;31435;0;0;0;0;3;0;20040;0;0;0;0;4;0;30238;0;0;0;0;5;0;0;0;0;0;0;0;0;6;0;52550;2;0;0;0;0;0;7;0;43559;0;0;0;0;8;0;43015;0;0;0;0;9;0;23499;0;0;0;0
26.03.21;21:30:00;1;693;12943;0;2;0;31435;0;0;0;0;3;0;20040;0;0;0;0;4;0;30238;0;0;0;0;5;0;0;0;0;0;0;0;0;6;0;52550;2;0;0;0;0;0;7;0;43559;0;0;0;0;8;0;43015;0;0;0;0;9;0;23499;0;0;0;0
26.03.21;21:25:00;1;653;12885;0;2;0;31435;0;0;0;0;3;0;20040;0;0;0;0;4;0;30238;0;0;0;0;5;0;0;0;0;0;0;0;0;6;0;52550;2;0;0;0;0;0;7;0;43559;0;0;0;0;8;0;43015;0;0;0;0;9;0;23499;0;0;0;0
26.03.21;21:20:00;1;679;12830;0;2;0;31435;0;0;0;0;3;0;20040;0;0;0;0;4;0;30238;0;0;0;0;5;0;0;0;0;0;0;0;0;6;0;52550;2;0;0;0;0;0;7;0;43559;0;0;0;0;8;0;43015;0;0;0;0;9;0;23499;0;0;0;0
26.03.21;21:15:00;1;691;12774;0;2;0;31435;0;0;0;0;3;0;20040;0;0;0;0;4;0;30238;0;0;0;0;5;0;0;0;0;0;0;0;0;6;0;52550;2;0;0;0;0;0;7;0;43559;0;0;0;0;8;0;43015;0;0;0;0;9;0;23499;0;0;0;0
26.03.21;21:10:00;1;696;12714;0;2;0;31435;0;0;0;0;3;0;20040;0;0;0;0;4;0;30238;0;0;0;0;5;0;0;0;0;0;0;0;0;6;0;52550;2;0;0;0;0;0;7;0;43559;0;0;0;0;8;0;43015;0;0;0;0;9;0;23499;0;0;0;0
26.03.21;21:05:00;1;752;12655;0;2;0;31435;0;0;0;0;3;0;20040;0;0;0;0;4;0;30238;0;0;0;0;5;0;0;0;0;0;0;0;0;6;0;52550;2;0;0;0;0;0;7;0;43559;0;0;0;0;8;0;43015;0;0;0;0;9;0;23499;0;0;0;0
26.03.21;21:00:00;1;752;12593;0;2;0;31435;0;0;0;0;3;0;20040;0;0;0;0;4;0;30238;0;0;0;0;5;0;0;0;0;0;0;0;0;6;0;52550;2;0;0;0;0;0;7;0;43559;0;0;0;0;8;0;43015;0;0;0;0;9;0;23499;0;0;0;0
26.03.21;20:55:00;1;727;12529;0;2;0;31435;0;0;0;0;3;0;20040;0;0;0;0;4;0;30238;0;0;0;0;5;0;0;0;0;0;0;0;0;6;0;52550;2;0;0;0;0;0;7;0;43559;0;0;0;0;8;0;43015;0;0;0;0;9;0;23499;0;0;0;0
26.03.21;20:50:00;1;663;12471;0;2;0;31435;0;0;0;0;3;0;20040;0;0;0;0;4;0;30238;0;0;0;0;5;0;0;0;0;0;0;0;0;6;0;52550;2;0;0;0;0;0;7;0;43559;0;0;0;0;8;0;43015;0;0;0;0;9;0;23499;0;0;0;0
26.03.21;20:45:00;1;705;12411;0;2;0;31435;0;0;0;0;3;0;20040;0;0;0;0;4;0;30238;0;0;0;0;5;0;0;0;0;0;0;0;0;6;0;52550;2;0;0;0;0;0;7;0;43559;0;0;0;0;8;0;43015;0;0;0;0;9;0;23499;0;0;0;0
26.03.21;20:40:00;1;654;12351;0;2;0;31435;0;0;0;0;3;0;20040;0;0;0;0;4;0;30238;0;0;0;0;5;0;0;0;0;0;0;0;0;6;0;52550;2;0;0;0;0;0;7;0;43559;0;0;0;0;8;0;43015;0;0;0;0;9;0;23499;0;0;0;0
26.03.21;20:35:00;1;625;12296;0;2;0;31435;0;0;0;0;3;0;20040;0;0;0;0;4;0;30238;0;0;0;0;5;0;0;0;0;0;0;0;0;6;0;52550;2;0;0;0;0;0;7;0;43559;0;0;0;0;8;0;43015;0;0;0;0;9;0;23499;0;0;0;0
26.03.21;20:30:00;1;1590;12242;0;2;0;31435;0;0;0;0;3;0;20040;0;0;0;0;4;0;30238;0;0;0;0;5;0;0;0;0;0;0;0;0;6;0;52550;2;0;0;0;0;0;7;0;43559;0;0;0;0;8;0;43015;0;0;0;0;9;0;23499;0;0;0;0
26.03.21;20:25:00;1;1462;12117;0;2;0;31435;0;0;0;0;3;0;20040;0;0;0;0;4;0;30238;0;0;0;0;5;0;0;0;0;0;0;0;0;6;0;52550;2;0;0;0;0;0;7;0;43559;0;0;0;0;8;0;43015;0;0;0;0;9;0;23499;0;0;0;0
26.03.21;20:20:00;1;590;11994;0;2;0;31435;0;0;0;0;3;0;20040;0;0;0;0;4;0;30238;0;0;0;0;5;0;0;0;0;0;0;0;0;6;0;52550;2;0;0;0;0;0;7;0;43559;0;0;0;0;8;0;43015;0;0;0;0;9;0;23499;0;0;0;0
26.03.21;20:15:00;1;471;11940;0;2;0;31435;0;0;0;0;3;0;20040;0;0;0;0;4;0;30238;0;0;0;0;5;0;0;0;0;0;0;0;0;6;0;52550;2;0;0;0;0;0;7;0;43559;0;0;0;0;8;0;43015;0;0;0;0;9;0;23499;0;0;0;0
26.03.21;20:10:00;1;442;11901;0;2;0;31435;0;0;0;0;3;0;20040;0;0;0;0;4;0;30238;0;0;0;0;5;0;0;0;0;0;0;0;0;6;0;52550;2;0;0;0;0;0;7;0;43559;0;0;0;0;8;0;43015;0;0;0;0;9;0;23499;0;0;0;0
26.03.21;20:05:00;1;437;11864;0;2;0;31435;0;0;0;0;3;0;20040;0;0;0;0;4;0;30238;0;0;0;0;5;0;0;0;0;0;0;0;0;6;0;52550;2;0;0;0;0;0;7;0;43559;0;0;0;0;8;0;43015;0;0;0;0;9;0;23499;0;0;0;0
26.03.21;20:00:00;1;497;11826;0;2;0;31435;0;0;0;0;3;0;20040;0;0;0;0;4;0;30238;0;0;0;0;5;0;0;0;0;0;0;0;0;6;0;52550;2;0;0;0;0;0;7;0;43559;0;0;0;0;8;0;43015;0;0;0;0;9;0;23499;0;0;0;0
26.03.21;19:55:00;1;434;11785;0;2;0;31435;0;0;0;0;3;0;20040;0;0;0;0;4;0;30238;0;0;0;0;5;0;0;0;0;0;0;0;0;6;0;52550;2;0;0;0;0;0;7;0;43559;0;0;0;0;8;0;43015;0;0;0;0;9;0;23499;0;0;0;0
26.03.21;19:50:00;1;428;11749;0;2;0;31435;0;0;0;0;3;0;20040;0;0;0;0;4;0;30238;0;0;0;0;5;0;0;0;0;0;0;0;0;6;0;52550;2;0;0;0;0;0;7;0;43559;0;0;0;0;8;0;43015;0;0;0;0;9;0;23499;0;0;0;0
26.03.21;19:45:00;1;520;11714;0;2;0;31435;0;0;0;0;3;0;20040;0;0;0;0;4;0;30238;0;0;0;0;5;0;0;0;0;0;0;0;0;6;0;52550;2;0;0;0;0;0;7;0;43559;0;0;0;0;8;0;43015;0;0;0;0;9;0;23499;0;0;0;0
26.03.21;19:40:00;1;533;11671;0;2;0;31435;0;0;0;0;3;0;20040;0;0;0;0;4;0;30238;0;0;0;0;5;0;0;0;0;0;0;0;0;6;0;52550;2;0;0;0;0;0;7;0;43559;0;0;0;0;8;0;43015;0;0;0;0;9;0;23499;0;0;0;0
26.03.21;19:35:00;1;556;11627;0;2;0;31435;0;0;0;0;3;0;20040;0;0;0;0;4;0;30238;0;0;0;0;5;0;0;0;0;0;0;0;0;6;0;52550;2;0;0;0;0;0;7;0;43559;0;0;0;0;8;0;43015;0;0;0;0;9;0;23499;0;0;0;0
26.03.21;19:30:00;1;571;11580;0;2;0;31435;0;0;0;0;3;0;20040;0;0;0;0;4;0;30238;0;0;0;0;5;0;0;0;0;0;0;0;0;6;0;52550;2;0;0;0;0;0;7;0;43559;0;0;0;0;8;0;43015;0;0;0;0;9;0;23499;0;0;0;0
26.03.21;19:25:00;1;580;11533;0;2;0;31435;0;0;0;0;3;0;20040;0;0;0;0;4;0;30238;0;0;0;0;5;0;0;0;0;0;0;0;0;6;0;52550;2;0;0;0;0;0;7;0;43559;0;0;0;0;8;0;43015;0;0;0;0;9;0;23499;0;0;0;0
26.03.21;19:20:00;1;607;11484;0;2;0;31435;0;0;0;0;3;0;20040;0;0;0;0;4;0;30238;0;0;0;0;5;0;0;0;0;0;0;0;0;6;0;52550;2;0;0;0;0;0;7;0;43559;0;0;0;0;8;0;43015;0;0;0;0;9;0;23499;0;0;0;0
26.03.21;19:15:00;1;559;11434;0;2;0;31435;0;0;0;0;3;0;20040;0;0;0;0;4;0;30238;0;0;0;0;5;0;0;0;0;0;0;0;0;6;0;52550;2;0;0;0;0;0;7;0;43559;0;0;0;0;8;0;43015;0;0;0;0;9;0;23499;0;0;0;0
26.03.21;19:10:00;1;531;11387;0;2;0;31435;0;0;0;0;3;0;20040;0;0;0;0;4;0;30238;0;0;0;0;5;0;0;0;0;0;0;0;0;6;0;52550;2;0;0;0;0;0;7;0;43559;0;0;0;0;8;0;43015;0;0;0;0;9;0;23499;0;0;0;0
26.03.21;19:05:00;1;512;11343;0;2;0;31435;0;0;0;0;3;0;20040;0;0;0;0;4;0;30238;0;0;0;0;5;0;0;0;0;0;0;0;0;6;0;52550;2;0;0;0;0;0;7;0;43559;0;0;0;0;8;0;43015;0;0;0;0;9;0;23499;0;0;0;0
26.03.21;19:00:00;1;720;11299;0;2;0;31435;0;0;0;0;3;0;20040;0;0;0;0;4;0;30238;0;0;0;0;5;0;0;0;0;0;0;0;0;6;0;52550;2;0;0;0;0;0;7;0;43559;0;0;0;0;8;0;43015;0;0;0;0;9;0;23499;0;0;0;0
26.03.21;18:55:00;1;871;11242;0;2;0;31435;0;0;0;0;3;0;20040;0;0;0;0;4;0;30238;0;0;0;0;5;0;0;0;0;0;0;0;0;6;0;52550;2;0;0;0;0;0;7;0;43559;0;0;0;0;8;0;43015;0;0;0;0;9;0;23499;0;0;0;0
26.03.21;18:50:00;1;558;11178;0;2;0;31435;0;0;97;7;3;0;20040;0;0;242;19;4;0;30238;0;0;0;0;5;0;0;0;0;0;0;0;0;6;0;52550;2;0;0;0;0;0;7;0;43559;0;0;0;0;8;0;43015;0;0;0;0;9;0;23499;0;0;0;0
26.03.21;18:45:00;1;679;11132;0;2;0;31435;6;0;292;20;3;0;20040;6;0;334;22;4;0;30238;0;0;61;23;5;0;0;0;0;0;0;0;0;6;0;52550;0;0;0;0;0;2;7;0;43559;0;0;0;0;8;0;43015;0;0;0;0;9;0;23499;0;0;0;0
26.03.21;18:40:00;1;585;11080;0;2;0;31435;6;0;331;21;3;0;20040;6;1;396;22;4;0;30238;1;0;114;27;5;0;0;0;0;0;0;0;0;6;0;52550;2;5;1;227;119;20;7;0;43559;0;0;129;12;8;0;43015;0;0;129;12;9;0;23499;0;0;179;12
26.03.21;18:35:00;1;615;11031;0;2;0;31435;6;0;358;21;3;0;20040;3;2;427;23;4;0;30238;1;0;157;28;5;0;0;0;0;0;0;0;0;6;0;52550;23;6;0;180;490;30;7;0;43559;6;0;314;25;8;0;43015;6;0;317;24;9;0;23499;6;0;327;19
26.03.21;18:30:00;1;624;10979;0;2;0;31435;6;0;381;22;3;1;20040;6;3;458;23;4;0;30238;1;0;202;29;5;0;0;0;0;0;0;0;0;6;0;52550;23;9;0;181;541;31;7;0;43559;6;1;384;25;8;0;43015;6;0;395;24;9;0;23499;6;0;410;20
26.03.21;18:25:00;1;539;10927;0;2;0;31435;6;0;396;23;3;5;20039;6;11;449;24;4;0;30238;1;0;201;30;5;0;0;0;0;0;0;0;0;6;0;52550;23;10;1;489;561;31;7;1;43559;3;6;405;26;8;0;43015;4;0;430;25;9;0;23499;6;0;478;20
26.03.21;18:20:00;1;458;10882;0;2;19;31435;6;36;379;24;3;1;20039;6;6;500;24;4;3;30238;3;3;199;30;5;0;0;0;0;0;0;0;0;6;7;52550;23;7;6;501;516;32;7;2;43559;6;11;431;26;8;3;43015;3;17;414;25;9;2;23499;4;6;298;14
26.03.21;18:15:00;1;520;10844;0;2;67;31433;4;103;355;25;3;6;20039;6;12;511;25;4;25;30237;3;26;197;31;5;0;0;0;0;0;0;0;0;6;57;52549;4;38;24;449;230;33;7;21;43558;6;39;411;27;8;12;43015;6;24;433;26;9;3;23499;6;6;508;21
26.03.21;18:10:00;1;480;10801;0;2;107;31428;4;141;357;25;3;56;20039;4;89;423;26;4;45;30235;3;47;197;31;5;0;0;0;0;0;0;0;0;6;79;52544;4;52;31;449;230;33;7;62;43557;4;97;402;27;8;54;43014;4;90;409;26;9;5;23499;6;16;501;22
26.03.21;18:05:00;1;363;10760;0;2;219;31419;4;259;355;26;3;125;20034;4;157;403;26;4;136;30231;3;142;206;32;5;0;0;0;0;0;0;0;0;6;103;52537;4;63;40;449;230;33;7;163;43552;4;204;420;27;8;112;43010;4;143;391;27;9;9;23498;6;13;535;22
26.03.21;18:00:00;1;364;10729;0;2;387;31401;4;432;358;27;3;227;20024;4;265;398;27;4;282;30220;5;293;217;33;5;0;0;0;0;0;0;0;0;6;126;52529;4;86;46;450;230;33;7;317;43539;4;359;444;28;8;194;43000;4;230;391;27;9;55;23498;6;78;482;23
26.03.21;17:55:00;1;551;10699;0;2;475;31370;4;522;356;28;3;279;20005;4;322;411;27;4;365;30197;5;380;231;33;5;0;0;0;0;0;0;0;0;6;143;52518;4;80;44;449;230;33;7;338;43513;4;368;362;22;8;272;42985;4;315;431;28;9;73;23494;4;107;467;23
26.03.21;17:50:00;1;2178;10640;0;2;667;31330;4;721;355;29;3;388;19982;4;430;415;28;4;506;30167;5;526;236;34;5;0;0;0;0;0;0;0;0;6;171;52506;4;108;61;449;230;34;7;584;43477;4;632;451;29;8;386;42962;4;428;445;28;9;99;23487;4;127;494;24
26.03.21;17:45:00;1;2208;10458;0;2;803;31275;4;863;358;30;3;465;19950;4;514;412;28;4;618;30126;5;644;236;34;5;0;0;0;0;0;0;0;0;6;204;52491;4;127;78;449;253;34;7;730;43430;4;784;465;29;8;478;42931;4;529;471;29;9;91;23479;4;115;415;19
26.03.21;17:40:00;1;2234;10275;0;2;967;31208;4;1034;355;31;3;549;19912;4;599;412;29;4;741;30074;5;772;232;35;5;0;0;0;0;0;0;0;0;6;329;52473;4;172;200;464;498;34;7;877;43369;4;940;461;30;8;437;42890;4;475;323;24;9;123;23470;4;164;530;25
26.03.21;17:35:00;1;1880;10089;0;2;1095;31128;4;1169;371;32;3;595;19866;4;648;404;29;4;847;30013;5;882;232;36;5;0;0;0;0;0;0;0;0;6;426;52446;4;185;203;565;548;34;7;1020;43297;4;1091;465;30;8;713;42846;4;759;360;29;9;148;23460;4;182;529;25
26.03.21;17:30:00;1;440;9956;0;2;1228;31037;4;1306;372;33;3;664;19817;4;718;409;30;4;954;29943;5;994;237;36;5;0;0;0;0;0;0;0;0;6;514;52409;4;240;257;582;548;34;7;1167;43212;4;1244;467;30;8;906;42788;4;963;370;30;9;144;23447;4;175;418;26
26.03.21;17:25:00;1;408;9918;0;2;1373;30935;4;1456;374;34;3;748;19762;4;805;421;30;4;1061;29863;5;1105;235;37;5;0;0;0;0;0;0;0;0;6;592;52366;4;274;290;567;549;34;7;1307;43115;4;1387;470;31;8;1078;42712;4;1139;398;31;9;162;23435;4;194;354;26
26.03.21;17:20:00;1;436;9881;0;2;1461;30820;4;1550;368;35;3;819;19699;4;877;415;31;4;1188;29774;5;1237;234;37;5;0;0;0;0;0;0;0;0;6;713;52316;4;348;361;585;550;34;7;1472;43006;4;1555;472;31;8;1291;42621;4;1365;419;31;9;262;23421;4;297;354;27
26.03.21;17:15:00;1;492;9845;0;2;1648;30699;4;1743;372;36;3;886;19631;4;950;425;31;4;1310;29676;5;1365;230;38;5;0;0;0;0;0;0;0;0;6;826;52256;4;424;440;583;558;35;7;1627;42883;4;1720;473;32;8;1481;42514;4;1557;439;32;9;454;23400;4;494;351;28
26.03.21;17:10:00;1;483;9804;0;2;1838;30560;4;1940;380;37;3;972;19557;4;1036;420;32;4;1438;29566;5;1498;233;39;5;0;0;0;0;0;0;0;0;6;969;52185;4;488;497;589;554;35;7;1812;42747;4;1912;476;32;8;1714;42390;4;1807;447;32;9;619;23361;4;664;354;29
26.03.21;17:05:00;1;490;9764;0;2;1957;30407;4;2071;388;39;3;1032;19476;4;1100;421;32;4;1544;29446;5;1608;233;39;5;0;0;0;0;0;0;0;0;6;1096;52103;4;538;544;588;556;35;7;1954;42596;4;2055;474;33;8;1889;42247;4;1986;461;33;9;722;23310;4;773;361;30
26.03.21;17:00:00;1;1159;9722;0;2;2143;30244;4;2263;381;40;3;1122;19390;4;1192;422;33;4;1688;29317;5;1758;233;40;5;0;0;0;0;0;0;0;0;6;1264;52010;4;657;669;585;559;35;7;2149;42433;4;2259;470;33;8;2109;42090;4;2223;461;33;9;840;23249;4;898;382;31
26.03.21;16:55:00;1;2272;9623;0;2;2256;30066;4;2380;378;41;3;1168;19297;4;1239;412;33;4;1785;29177;5;1859;233;40;5;0;0;0;0;0;0;0;0;6;1397;51905;4;688;698;583;557;35;7;2293;42254;4;2410;473;34;8;2262;41915;4;2378;465;33;9;960;23180;4;1023;411;31
26.03.21;16:50:00;1;2280;9432;0;2;2384;29877;4;2517;385;42;3;1229;19199;4;1303;414;34;4;1883;29028;5;1962;232;41;5;0;0;0;0;0;0;0;0;6;1547;51786;4;785;780;584;560;36;7;2447;42063;4;2566;470;34;8;2415;41726;4;2534;466;34;9;1097;23099;4;1168;434;32
26.03.21;16:45:00;1;1381;9242;0;2;2473;29679;4;2608;383;43;3;1269;19097;4;1344;413;34;4;1956;28871;5;2037;231;41;5;0;0;0;0;0;0;0;0;6;1684;51656;4;878;876;584;558;36;7;2543;41859;4;2674;464;34;8;2516;41524;4;2638;462;34;9;1199;23008;4;1274;453;33
26.03.21;16:40:00;1;448;9115;0;2;2649;29472;4;2792;384;44;3;1342;18991;4;1416;392;35;4;2113;28707;5;2201;228;42;5;0;0;0;0;0;0;0;0;6;1893;51514;4;967;948;583;555;36;7;2757;41647;4;2892;461;35;8;2722;41314;4;2855;458;34;9;1376;22907;4;1458;476;34
26.03.21;16:35:00;1;476;9077;0;2;2769;29252;4;2919;381;45;3;1463;18880;4;1543;417;36;4;2226;28533;5;2319;230;42;5;0;0;0;0;0;0;0;0;6;2062;51357;4;1069;1053;583;559;36;7;2907;41418;4;3053;463;35;8;2874;41088;4;3020;461;35;9;1494;22794;4;1586;488;35
26.03.21;16:30:00;1;381;9037;0;2;2863;29021;4;3022;383;45;3;1555;18758;4;1640;421;37;4;2324;28346;5;2420;229;43;5;0;0;0;0;0;0;0;0;6;2219;51183;4;1144;1113;586;555;36;7;3048;41176;4;3198;463;35;8;3006;40848;4;3153;460;35;9;1597;22669;4;1699;499;35
26.03.21;16:25:00;1;340;9004;0;2;2936;28783;4;3100;384;46;3;1583;18628;4;1672;430;37;4;2403;28153;5;2503;229;43;5;0;0;0;0;0;0;0;0;6;2355;50997;4;1214;1179;584;553;37;7;3162;40922;4;3321;462;36;8;3122;40599;4;3277;458;36;9;1695;22536;4;1803;510;36
26.03.21;16:20:00;1;349;8976;0;2;3026;28538;4;3195;379;47;3;1668;18496;4;1758;429;37;4;2484;27953;5;2588;229;44;5;0;0;0;0;0;0;0;0;6;2522;50799;4;1293;1265;581;550;37;7;3296;40658;4;3465;461;36;8;2713;40340;4;2850;380;30;9;1773;22396;4;1883;505;36
26.03.21;16:15:00;1;357;8947;0;2;3077;28286;4;3245;377;47;3;1718;18357;4;1811;433;38;4;2541;27746;5;2647;228;44;5;0;0;0;0;0;0;0;0;6;2653;50588;4;1363;1325;577;547;37;7;3401;40386;4;3571;457;37;8;3359;40069;4;3524;457;36;9;1828;22248;4;1941;506;37
26.03.21;16:10:00;1;346;8917;0;2;3162;28029;4;3335;375;48;3;1767;18214;4;1861;431;38;4;2620;27535;5;2729;229;45;5;0;0;0;0;0;0;0;0;6;2815;50366;4;1458;1409;576;549;37;7;3518;40100;4;3701;461;37;8;3478;39787;4;3654;453;37;9;1898;22095;4;2016;502;37
26.03.21;16:05:00;1;1666;8889;0;2;3261;27766;4;3444;376;48;3;1815;18067;4;1915;434;38;4;2720;27317;5;2834;227;45;5;0;0;0;0;0;0;0;0;6;2969;50131;4;1561;1505;574;547;37;7;3642;39808;4;3818;457;37;8;3596;39499;4;3778;453;37;9;1960;21937;4;2085;511;38
26.03.21;16:00:00;1;381;8777;0;2;3400;27494;4;3590;375;49;3;1922;17916;4;2026;443;39;4;2849;27090;5;2967;230;46;5;0;0;0;0;0;0;0;0;6;3184;49882;4;1651;1607;575;550;38;7;3799;39504;4;3994;452;38;8;3753;39198;4;3939;449;38;9;2053;21773;4;2178;502;38
26.03.21;15:55:00;1;345;8744;0;2;3455;27212;4;3651;380;49;3;1931;17757;4;2034;435;39;4;2914;26853;5;3035;226;46;5;0;0;0;0;0;0;0;0;6;3317;49616;4;1725;1675;572;548;38;7;3907;39188;4;4100;450;38;8;3850;38887;4;4047;454;38;9;2118;21603;4;2244;496;39
26.03.21;15:50:00;1;430;8714;0;2;3563;26924;4;3760;374;49;3;1984;17596;4;2089;429;39;4;3015;26610;5;3141;226;46;5;0;0;0;0;0;0;0;0;6;3505;49338;4;1805;1738;568;547;38;7;4041;38863;4;4247;450;38;8;3325;38565;4;3492;375;31;9;2196;21426;4;2325;496;39
26.03.21;15:45:00;1;440;8679;0;2;3596;26628;4;3787;364;50;3;1954;17431;4;2058;426;39;4;3064;26360;5;3191;222;47;5;0;0;0;0;0;0;0;0;6;3642;49045;4;1888;1817;566;543;38;7;4135;38527;4;4341;448;38;8;4086;38235;4;4286;446;39;9;2244;21244;4;2376;492;39
26.03.21;15:40:00;1;433;8642;0;2;3657;26329;4;3858;369;50;3;2019;17268;4;2125;408;40;4;3113;26104;5;3243;222;47;5;0;0;0;0;0;0;0;0;6;3788;48740;4;1951;1895;562;545;38;7;4233;38183;4;4450;453;39;8;4197;37894;4;4411;445;39;9;2305;21057;4;2440;494;39
26.03.21;15:35:00;1;355;8605;0;2;3709;26023;4;3907;365;50;3;2142;17099;4;2253;425;40;4;3164;25845;5;3295;221;47;5;0;0;0;0;0;0;0;0;6;3906;48424;4;1998;1941;559;542;38;7;4320;37829;4;4540;449;39;8;4291;37544;4;4498;439;39;9;2355;20865;4;2492;490;40
26.03.21;15:30:00;1;361;8574;0;2;3804;25714;4;4011;369;50;3;2239;16921;4;2353;422;40;4;3281;25581;5;3418;220;48;5;0;0;0;0;0;0;0;0;6;4120;48096;4;2127;2078;561;543;39;7;4408;37469;4;4630;439;39;8;4372;37186;4;4588;438;39;9;2397;20669;4;2537;485;40
26.03.21;15:25:00;1;336;8543;0;2;3920;25397;4;4129;365;50;3;2301;16734;4;2418;422;40;4;3366;25308;5;3507;222;48;5;0;0;0;0;0;0;0;0;6;4302;47752;4;2224;2157;561;544;39;7;4544;37108;4;4769;443;40;8;4515;36829;4;4739;441;40;9;2485;20472;4;2629;484;41
26.03.21;15:20:00;1;397;8515;0;2;3961;25071;4;4181;370;50;3;2333;16542;4;2450;423;40;4;3447;25027;5;3590;222;48;5;0;0;0;0;0;0;0;0;6;4438;47393;4;2284;2215;560;543;39;7;4702;36722;4;4929;444;40;8;4661;36445;4;4898;436;40;9;2565;20261;4;2719;492;41
26.03.21;15:15:00;1;2169;8486;0;2;3996;24741;4;4211;360;50;3;2381;16348;4;2502;431;40;4;3460;24740;5;3605;220;48;5;0;0;0;0;0;0;0;0;6;4538;47022;4;2340;2259;557;542;39;7;4717;36331;4;4949;438;40;8;4695;36057;4;4932;434;40;9;2590;20047;4;2744;488;41
26.03.21;15:10:00;1;2481;8284;0;2;4061;24408;4;4277;359;50;3;2448;16149;4;2574;427;40;4;3560;24451;5;3708;220;49;5;0;0;0;0;0;0;0;0;6;4727;46643;4;2432;2359;559;543;39;7;4826;35937;4;5068;445;40;8;4809;35666;4;5053;439;40;9;2647;19832;4;2804;485;42
26.03.21;15:05:00;1;2484;8075;0;2;4068;24068;4;4283;355;50;3;2444;15945;4;2572;428;40;4;3561;24155;5;3709;219;49;5;0;0;0;0;0;0;0;0;6;4802;46248;4;2472;2392;554;543;39;7;4890;35535;4;5130;433;41;8;4858;35265;4;5105;434;41;9;2688;19611;4;2845;480;42
26.03.21;15:00:00;1;2661;7867;0;2;4112;23729;4;4342;365;49;3;2470;15741;4;2595;423;40;4;3600;23858;5;3750;218;49;5;0;0;0;0;0;0;0;0;6;4919;45846;4;2535;2464;550;540;39;7;4930;35128;4;5182;432;41;8;4895;34859;4;5140;426;41;9;2712;19387;4;2866;480;42
26.03.21;14:55:00;1;2506;7642;0;2;4149;23386;4;4370;362;49;3;2494;15536;4;2615;427;39;4;3652;23557;5;3804;219;49;5;0;0;0;0;0;0;0;0;6;5019;45436;4;2587;2506;554;540;40;7;5002;34717;4;5259;438;41;8;4965;34451;4;5215;437;41;9;2750;19160;4;2907;475;42
26.03.21;14:50:00;1;2688;7432;0;2;4175;23042;4;4397;358;48;3;2557;15328;4;2684;435;39;4;3685;23254;5;3839;219;49;5;0;0;0;0;0;0;0;0;6;5127;45017;4;2645;2552;555;538;40;7;5072;34301;4;5325;436;41;8;5032;34039;4;5290;433;41;9;2784;18932;4;2943;479;43
26.03.21;14:45:00;1;2604;7207;0;2;4211;22693;4;4441;357;48;3;2585;15115;4;2717;439;39;4;3736;22947;5;3891;221;49;5;0;0;0;0;0;0;0;0;6;5237;44589;4;2704;2607;554;538;40;7;5150;33879;4;5416;427;41;8;5121;33619;4;5379;434;41;9;2828;18700;4;2992;486;43
26.03.21;14:40:00;1;2189;6987;0;2;4238;22342;4;4457;358;48;3;2597;14899;4;2728;435;39;4;3764;22635;5;3920;219;49;5;0;0;0;0;0;0;0;0;6;5333;44151;4;2774;2672;553;535;40;7;5236;33449;4;5499;435;41;8;5196;33192;4;5456;435;41;9;2871;18464;4;3040;483;43
26.03.21;14:35:00;1;404;6796;0;2;4274;21989;4;4490;358;48;3;2615;14683;4;2742;438;39;4;3776;22321;5;3933;217;49;5;0;0;0;0;0;0;0;0;6;5432;43706;4;2817;2738;548;533;40;7;5223;33013;4;5477;427;42;8;5195;32759;4;5448;435;42;9;2395;18225;4;2525;402;35
26.03.21;14:30:00;1;450;6761;0;2;4325;21632;4;4546;357;48;3;2658;14465;4;2789;431;40;4;3839;22006;5;3999;218;50;5;0;0;0;0;0;0;0;0;6;5605;43252;4;2888;2813;548;530;39;7;5353;32577;4;5611;427;42;8;5313;32327;4;5573;435;42;9;2954;17985;4;3117;477;43